Skip Page Navigation
NASA JPL Caltech
NASA Logo - Jet Propulsion Laboratory + View the NASA Portal
+ Near-Earth Object (NEO) Program
Search JPL
JPL Home Earth Solar System Stars & Galaxies Technology
JPL Solar System Dynamics
BODIES ORBITS EPHEMERIDES TOOLS PHYSICAL DATA DISCOVERY FAQ SITE MAP
JPL Small-Body Database Browser
Search: [ help ]  
1220 Crocus (1932 CU)
Classification: Main-belt Asteroid          SPK-ID: 2001220
Ephemeris | Orbit Diagram | Orbital Elements | Physical Parameters | Discovery Circumstances | Close-Approach Data ]

[ show orbit diagram ]
Orbital Elements at Epoch 2456800.5 (2014-May-23.0) TDB
Reference: JPL 8 (heliocentric ecliptic J2000)
 Element Value Uncertainty (1-sigma)   Units 
e .07159777532164997 5.5355e-08  
a 3.003037032283294 2.4468e-08 AU
q 2.78802626156328 1.7087e-07 AU
i 11.37508364149882 5.905e-06 deg
node 113.4256494229307 3.363e-05 deg
peri 334.5466332998271 5.4664e-05 deg
M 335.8996733397048 4.4812e-05 deg
tp 2456927.750614105582
(2014-Sep-27.25061411)
0.00023701 JED
period 1900.813284555222
5.20
2.3231e-05
6.36e-08
d
yr
n .1893926157424966 2.3147e-09 deg/d
Q 3.218047803003307 2.622e-08 AU
  Orbit Determination Parameters
   # obs. used (total)      1186  
   data-arc span      29921 days (81.92 yr)  
   first obs. used      1932-02-11  
   last obs. used      2014-01-12  
   planetary ephem.      DE431  
   SB-pert. ephem.      SB431-BIG16  
   condition code      0  
   fit RMS      .50019  
   data source      ORB  
   producer      Otto Matic  
   solution date      2014-Jun-09 17:28:18  

Additional Information
 Earth MOID = 1.80848 AU 
 T_jup = 3.218 
[ show covariance matrix ]

Ephemeris | Orbit Diagram | Orbital Elements | Physical Parameters | Discovery Circumstances | Close-Approach Data ]

Physical Parameter Table
Parameter Symbol Value Units Sigma Reference Notes
absolute magnitude H 11.72 mag n/a PDS3 (MPC 17261)  
magnitude slope G 0.23   n/a PDS3 (MPC 17261) Fit
rotation period rot_per 737. h n/a Asteroid Lightcurve DataBase (Rev. 2013-Sep-12) Result based on less than full coverage, so that the period may be wrong by 30 percent or so.
Published Reference List:
[Binzel, R.P. (1985) Icarus 63, 1, 99-108.]
[Binzel, R.P. (1987) Icarus 72, 135-208.]

1220 Crocus (1932 CU)          Discovered 1932-Feb-11 by Reinmuth, K. at Heidelberg (024)
Reference: DISCOVERY.DBLast Updated: 2003-08-29

[ show close-approach data ]
Alternate Designations
 1932 CU = 1955 PC 
Ephemeris | Orbit Diagram | Orbital Elements | Physical Parameters | Discovery Circumstances | Close-Approach Data ]
ABOUT SSD CREDITS/AWARDS PRIVACY/COPYRIGHT GLOSSARY LINKS
FirstGov 2014-Jul-24 21:38 UT
(server date/time)  
NASA Home Page
Site Manager:   Donald K. Yeomans
Webmaster  Alan B. Chamberlin